Theta_e
328 329 330 324 324 324 329 329 327 332 333 330 331 335 339 339 341 339 335 339 335 335 335 337 337 338 338 337 336 335 332 333 334 334 333 332 333 332 331 330 329 329 329 329 327 328 329 329 327
329 329 328 321 324 328 328 329 334 332 330 328 332 336 337 342 337 335 338 338 335 334 336 337 337 337 337 336 334 333 332 332 333 333 333 331 331 331 330 329 329 329 329 328 328 328 328 328 325
328 329 324 325 320 326 327 329 331 331 329 331 332 332 335 339 335 335 338 338 334 334 335 337 337 337 336 335 331 331 331 331 332 332 331 331 331 332 330 329 329 328 329 328 328 327 325 325 325
329 327 322 328 325 323 327 329 330 330 328 329 332 337 334 335 336 337 339 337 335 335 335 336 336 336 336 332 330 328 330 330 328 331 331 328 329 331 329 330 329 328 328 328 327 325 323 324 324
327 322 329 331 329 324 325 328 327 330 328 329 329 337 336 337 337 336 338 337 336 336 335 335 336 336 334 332 330 327 328 328 327 329 330 328 329 329 328 328 329 328 328 327 327 319 319 324 324
325 322 331 332 333 328 325 326 327 327 327 328 329 335 335 337 336 335 337 337 336 336 335 335 335 335 334 332 330 326 327 328 327 329 329 328 327 329 328 327 327 328 327 327 325 318 317 320 324
328 326 331 332 332 331 328 324 325 325 326 326 322 336 335 335 335 334 335 336 336 335 334 334 335 335 334 333 330 327 325 326 327 328 328 329 327 328 327 326 325 326 326 324 318 317 317 317 320
323 324 331 329 329 330 325 325 324 325 328 326 325 336 337 334 336 335 333 335 335 334 333 334 334 334 334 333 331 327 324 321 323 325 328 328 327 326 327 327 325 322 318 317 317 316 316 316 316
323 326 326 326 328 330 323 326 323 323 328 327 331 330 331 336 336 335 333 335 335 334 332 332 333 333 334 334 331 328 325 322 319 324 326 327 327 326 325 326 325 321 318 317 316 316 315 315 315
326 326 326 321 327 330 328 324 323 325 325 329 334 334 334 336 336 335 332 331 334 335 334 332 332 333 333 334 332 330 327 324 321 319 321 324 327 325 323 323 322 320 319 319 318 317 316 317 321
327 329 326 326 328 329 329 329 325 323 325 325 329 335 333 334 334 333 332 332 332 334 333 332 332 332 333 333 332 331 329 326 325 324 321 319 320 323 324 323 322 319 319 319 318 318 318 322 322
327 326 326 325 324 325 329 329 328 324 322 321 320 334 333 331 332 332 332 332 331 331 331 333 333 331 332 332 332 331 330 328 326 325 324 325 324 322 322 324 322 319 318 318 318 318 318 322 322
321 324 323 322 322 323 323 327 328 327 323 322 329 333 332 332 332 333 334 334 333 331 330 330 334 331 332 332 330 330 330 329 327 326 325 326 326 325 324 323 320 316 317 317 319 320 321 321 321
319 320 320 323 323 322 323 323 325 324 323 323 329 332 331 331 332 332 332 333 332 332 330 329 331 331 330 332 330 329 330 330 328 327 326 326 328 326 326 324 321 320 318 318 319 321 321 321 321
320 322 320 320 321 323 321 323 325 322 322 323 323 320 327 330 331 331 331 331 331 332 331 329 328 330 329 329 330 329 329 330 328 328 327 328 327 328 327 325 322 323 322 321 321 321 321 321 320
322 319 323 320 321 321 322 324 321 319 320 321 320 318 318 318 331 332 331 331 331 331 332 331 328 327 330 330 330 330 330 329 330 329 328 328 328 328 327 326 324 324 323 322 321 321 320 320 320
320 321 321 320 319 321 321 322 320 318 319 318 316 316 315 316 317 327 331 331 331 332 332 332 328 326 326 330 330 331 330 330 329 329 328 327 327 328 328 326 325 325 324 323 322 321 320 320 319
322 322 320 320 319 318 319 319 317 316 318 318 317 315 314 314 316 320 321 328 331 332 332 332 329 325 325 325 328 330 330 330 329 328 327 325 326 327 327 326 325 325 324 324 323 322 321 320 319
319 318 319 318 318 318 317 318 318 317 315 316 316 314 314 314 316 318 319 322 328 332 332 332 328 325 324 324 323 325 327 328 328 326 325 324 325 326 326 325 325 325 324 322 322 322 321 321 320
317 319 318 317 316 316 316 317 315 312 315 314 316 315 315 314 313 316 318 319 324 328 332 332 330 325 324 323 323 322 323 324 326 325 324 324 324 324 325 325 324 324 324 322 322 321 322 321 321
321 320 318 320 318 317 319 320 318 316 314 315 315 314 314 314 314 313 316 318 319 326 330 331 331 328 326 324 323 323 323 323 323 324 324 324 323 323 322 322 322 321 322 322 322 321 321 320 320
321 320 318 319 320 319 317 321 317 316 315 314 314 313 312 311 312 312 315 316 317 320 326 329 331 329 328 325 324 324 324 323 323 323 323 323 323 322 321 321 321 321 321 321 322 322 322 321 319
318 318 320 318 318 319 319 320 317 316 316 315 314 312 311 311 312 313 313 315 318 318 321 326 330 330 328 326 325 325 324 324 323 322 322 322 322 322 322 321 321 321 321 321 321 322 322 322 320
316 317 317 317 320 322 319 319 316 314 315 313 312 311 311 311 311 310 312 314 315 316 319 325 328 330 330 328 326 325 325 325 324 322 322 322 322 322 322 322 321 321 321 321 321 321 321 322 322
317 318 310 323 323 320 314 318 317 313 312 312 312 311 310 309 309 308 310 311 314 316 316 321 327 329 330 329 326 325 326 325 325 324 322 322 322 322 322 322 321 321 321 321 321 321 321 322 322
319 318 317 312 314 316 313 319 316 314 313 313 312 312 311 309 309 309 310 313 315 316 318 315 325 328 329 329 328 326 326 325 325 325 324 323 323 323 323 322 322 321 321 321 321 322 322 322 322
318 321 315 312 307 310 313 314 314 314 313 312 310 310 312 311 309 310 310 311 311 311 312 314 317 324 328 329 330 328 326 326 326 326 325 324 324 323 323 323 323 323 322 321 322 322 323 323 323
316 315 320 316 316 317 315 316 314 315 315 312 313 310 309 309 308 306 306 309 310 310 311 311 310 311 316 325 328 329 329 328 327 327 327 326 325 324 324 324 323 324 324 323 322 322 323 324 324
317 317 315 314 314 314 313 313 310 312 310 311 310 310 309 308 306 304 303 306 308 310 311 311 312 312 311 310 312 322 327 329 329 329 328 328 327 326 325 325 325 325 325 324 324 324 324 324 324
315 315 315 316 314 311 312 312 312 311 310 310 311 309 310 307 305 303 303 306 307 308 309 310 310 310 311 311 310 309 314 326 327 329 329 329 328 327 327 326 326 326 326 325 325 325 325 325 325
Wind_Speed
31 32 16 4 4 5 1 1 1 3 2 1 1 7 7 3 1 2 6 17 18 18 16 16 15 16 16 15 13 14 12 14 15 16 16 15 16 15 17 16 17 17 17 16 16 17 18 18 19
32 24 5 2 5 4 3 2 5 1 4 7 8 4 5 2 2 7 14 19 15 18 17 18 17 16 15 14 11 14 13 13 13 14 13 13 12 13 15 15 16 16 16 15 15 16 16 17 18
26 12 3 4 3 4 4 3 5 3 1 2 4 5 3 4 2 17 13 21 18 17 16 17 17 16 15 11 11 13 13 12 14 13 12 12 11 14 14 14 14 15 15 14 14 14 16 17 16
12 8 4 4 1 1 6 6 5 4 1 3 4 6 2 4 18 10 27 21 19 18 17 17 17 16 13 11 11 11 13 13 14 15 12 9 10 12 13 13 14 14 13 13 12 13 16 15 13
8 3 4 2 3 0 1 5 7 5 2 2 4 4 2 2 7 24 27 21 18 19 19 19 18 15 13 12 11 11 13 13 14 16 11 10 11 8 10 11 13 12 12 12 11 13 14 14 12
5 3 3 1 3 1 3 5 6 4 3 2 5 4 3 5 20 25 26 21 16 18 19 19 19 17 14 13 11 11 13 13 13 15 11 10 12 9 8 10 12 12 11 11 10 12 12 12 11
3 3 2 1 3 2 2 0 6 7 5 3 8 5 1 5 21 22 22 20 18 16 19 20 19 19 16 14 12 11 12 13 14 16 14 12 11 11 9 9 10 11 11 10 10 10 10 10 9
4 3 3 1 2 2 4 5 1 3 3 1 5 5 5 12 22 19 21 21 20 18 18 20 21 19 19 17 14 12 12 12 14 17 16 13 13 13 13 11 7 10 10 9 9 9 8 8 8
3 4 2 3 4 4 3 3 4 3 3 3 4 4 4 25 24 19 20 23 22 20 19 20 21 22 20 19 17 15 13 12 14 15 17 16 14 12 13 12 10 9 9 9 8 7 7 6 6
3 4 8 4 1 4 6 1 5 2 1 2 3 5 12 29 25 22 22 22 25 24 22 20 23 22 22 21 20 18 16 15 14 14 16 16 16 13 13 12 11 10 9 8 7 7 7 7 6
4 5 4 2 2 5 5 4 4 1 1 3 5 6 8 14 20 19 22 28 29 25 24 23 24 23 23 24 22 21 19 17 15 15 15 15 16 16 14 12 13 12 12 11 10 9 8 7 5
2 6 3 3 1 3 4 3 5 1 2 5 6 14 13 10 16 20 22 25 26 27 25 26 26 26 25 25 25 22 22 20 19 18 17 18 16 16 15 13 14 14 14 13 12 10 9 8 8
4 3 5 6 8 2 3 6 5 5 8 3 3 12 12 13 19 24 29 27 25 27 29 27 29 29 28 28 26 25 24 23 21 20 20 21 18 19 16 16 15 16 15 15 14 12 11 10 9
3 3 5 5 8 4 3 6 3 4 4 6 7 9 9 13 23 21 26 31 30 29 32 29 30 31 30 32 29 29 28 27 24 23 23 23 21 21 20 18 19 17 17 15 15 14 12 12 12
5 4 5 4 3 4 4 5 9 9 6 8 8 8 9 15 16 25 34 33 34 37 34 33 33 33 33 34 32 31 30 29 29 27 25 25 26 25 23 21 21 21 19 16 16 16 15 15 15
4 4 2 4 7 5 5 14 6 10 7 10 10 8 8 10 22 31 31 33 31 32 38 37 36 36 36 36 35 34 33 30 31 31 27 28 29 28 27 25 25 22 21 20 19 19 19 18 18
2 3 6 7 7 3 7 4 5 9 9 9 9 9 8 8 12 29 32 33 32 34 35 38 39 41 40 38 37 37 35 33 31 33 32 29 30 31 31 29 27 24 24 24 23 23 22 21 21
7 7 5 6 5 8 12 18 14 11 8 12 11 10 8 8 10 16 25 34 34 33 35 36 40 42 42 40 39 37 35 35 35 34 35 32 33 33 34 33 30 27 27 27 26 26 25 24 22
10 5 10 3 6 2 7 15 13 16 14 15 12 9 9 9 13 17 17 23 33 33 34 38 39 45 43 42 41 39 41 41 40 39 39 36 35 36 36 36 35 31 32 31 29 28 27 25 22
7 14 9 4 4 7 9 16 13 9 15 10 12 9 9 6 8 18 24 19 28 36 39 39 43 42 44 40 42 37 31 35 42 41 41 39 39 39 39 38 38 38 36 35 33 31 30 27 24
18 18 8 4 2 4 2 16 11 6 6 6 5 7 6 9 10 11 21 29 26 33 38 41 45 45 47 45 33 32 29 31 32 40 43 46 44 43 42 42 41 40 41 41 39 36 34 26 27
20 15 6 7 5 8 5 10 6 4 9 7 7 7 9 9 9 12 18 24 30 31 37 42 45 45 47 43 35 36 36 34 40 35 35 42 47 47 45 45 44 44 43 41 40 40 38 34 25
10 10 13 6 6 1 9 2 5 4 8 8 8 9 9 10 11 15 16 26 33 34 37 40 43 42 44 43 44 40 35 35 37 33 34 41 45 47 48 47 47 45 43 43 41 41 41 39 31
6 5 4 4 6 11 19 6 16 11 9 8 7 9 9 11 13 13 19 25 27 31 32 37 39 42 45 46 48 43 40 38 31 32 34 36 37 41 47 50 49 48 45 43 43 44 43 43 39
8 7 1 7 8 16 9 7 23 5 9 12 12 12 12 11 8 8 9 15 24 20 23 32 35 35 43 45 44 46 47 44 39 36 34 32 33 36 47 49 46 47 48 46 43 42 44 43 40
18 18 6 8 6 6 5 10 13 6 13 15 14 16 7 9 8 9 9 10 12 10 11 15 25 31 31 35 42 45 45 41 41 39 37 37 37 38 41 39 47 50 47 46 44 42 42 40 43
8 13 12 5 2 3 5 7 7 9 10 7 9 6 8 5 4 1 1 4 8 12 12 11 11 22 31 34 36 36 38 40 39 38 38 39 38 37 40 39 42 46 46 46 43 41 40 38 39
12 9 7 7 6 6 4 4 6 2 2 6 3 7 5 3 2 4 7 15 20 18 16 16 14 12 15 25 34 37 37 40 41 38 38 37 36 36 36 37 41 43 45 46 41 39 38 36 37
8 8 5 4 5 5 3 6 8 12 8 7 6 5 4 6 6 8 9 20 23 26 27 22 21 22 20 16 20 31 38 38 39 40 40 38 36 35 37 37 39 41 43 43 41 39 36 35 36
18 21 17 8 6 3 2 7 3 7 10 7 6 4 4 6 7 7 10 18 23 27 29 29 31 30 30 29 26 23 27 34 36 37 37 36 38 38 42 40 39 39 39 39 40 39 36 36 36
Wind_Direction
336 338 342 31 54 63 2 48 142 126 52 36 40 104 120 72 65 181 155 176 152 154 154 151 149 144 139 129 126 114 110 116 121 118 113 114 111 105 111 108 109 105 103 102 102 105 106 103 96
336 343 21 74 84 72 300 289 109 157 175 130 89 95 54 99 127 118 130 155 155 156 159 156 155 153 146 141 132 122 119 121 126 119 119 125 119 112 115 108 108 108 108 109 110 110 113 107 99
337 341 64 81 100 155 175 207 162 162 123 105 101 63 126 157 132 156 164 153 152 156 161 160 160 158 151 142 135 128 127 132 135 127 128 127 124 117 114 115 114 113 116 115 112 114 119 115 105
344 359 26 74 82 328 163 183 184 131 56 80 113 75 39 291 155 172 156 156 155 156 162 163 164 163 157 149 136 129 136 146 140 139 132 134 130 127 119 122 119 120 120 118 117 120 125 122 109
7 46 34 27 331 284 215 183 167 143 184 134 136 179 116 333 184 160 161 161 163 159 165 165 167 170 165 156 145 140 146 151 152 146 139 143 138 142 125 126 128 125 124 124 126 127 130 130 118
11 77 36 82 338 270 279 201 143 129 180 178 75 106 201 181 158 157 164 163 170 166 166 171 170 173 171 166 159 155 155 160 158 154 152 157 151 149 136 134 135 134 134 136 133 131 133 137 135
96 66 229 225 285 280 273 215 150 166 160 228 144 118 274 195 168 165 167 168 169 173 174 173 177 174 177 174 170 167 162 166 171 168 160 159 160 159 140 137 138 144 145 144 140 137 137 139 143
104 91 304 300 276 341 310 0 62 131 193 135 129 172 211 210 172 170 171 174 173 175 180 181 179 182 179 180 179 177 171 174 179 174 173 164 170 175 175 154 163 156 154 155 152 145 143 142 140
85 75 252 266 23 307 337 11 352 325 98 61 20 136 250 170 173 168 173 173 175 177 181 185 187 184 187 184 186 184 182 182 182 182 189 185 185 188 188 189 184 176 171 169 163 158 151 147 142
105 134 213 179 102 328 331 50 322 84 30 32 29 13 144 164 177 178 176 177 182 183 186 191 191 192 188 190 190 192 190 188 188 187 189 198 202 199 192 194 196 193 188 186 179 173 169 164 154
198 191 224 190 67 2 333 337 322 45 286 210 216 180 164 169 184 189 189 187 186 191 192 194 193 193 196 195 196 197 199 199 198 195 196 195 197 201 204 204 203 202 199 197 195 192 190 188 208
222 228 220 289 111 21 294 271 329 240 227 298 253 172 169 177 192 197 203 200 199 197 200 202 198 196 197 202 200 207 205 204 206 207 202 198 198 204 209 218 218 216 213 210 208 205 205 217 232
222 272 278 263 276 224 272 271 244 254 278 288 100 164 188 190 200 207 210 212 212 212 208 207 205 203 203 203 204 212 216 215 216 216 212 211 215 216 221 224 228 225 223 221 218 216 220 232 243
185 230 276 296 284 300 253 267 213 230 238 293 163 203 206 202 205 205 214 217 219 220 217 213 211 210 209 207 209 213 217 219 221 220 214 215 221 222 225 233 229 227 226 226 227 231 233 240 248
245 286 300 241 251 261 354 283 231 259 270 270 253 231 217 221 213 212 217 219 217 218 218 218 215 216 215 215 216 217 221 220 218 221 220 220 223 223 230 238 234 233 230 230 232 235 237 241 246
177 121 205 240 201 236 123 259 269 271 248 261 263 277 247 227 222 228 229 229 229 220 218 222 221 219 220 222 220 222 223 226 225 225 225 226 226 227 231 236 236 235 234 232 235 235 236 239 243
339 158 193 263 205 183 186 269 255 238 230 246 261 267 263 262 236 240 240 239 232 228 224 221 219 221 221 224 227 227 228 227 229 227 226 232 229 230 233 236 236 234 234 233 234 235 237 239 245
191 197 221 188 227 203 238 252 261 270 256 245 242 245 262 267 265 269 253 247 238 232 230 230 224 222 222 224 228 228 227 228 232 231 232 236 230 231 234 238 237 234 234 234 234 235 238 243 247
188 201 210 210 232 203 238 259 251 256 249 249 250 252 250 255 271 289 280 256 240 234 229 229 227 225 221 218 221 227 229 229 230 234 236 235 232 233 234 237 235 233 234 234 234 235 235 239 241
202 212 215 257 210 171 265 266 254 240 256 232 238 238 249 269 277 285 285 266 240 235 232 228 228 223 223 218 219 217 224 232 235 236 235 236 235 234 233 235 237 234 235 235 234 232 232 237 235
219 219 186 175 198 250 322 283 262 235 242 258 223 223 228 233 255 266 267 269 256 232 227 226 229 224 225 223 216 215 218 233 239 237 236 236 235 236 236 236 236 236 235 236 233 232 231 231 235
217 215 163 187 159 240 154 265 239 200 245 243 240 242 246 253 254 256 262 265 264 250 241 232 229 223 224 219 211 211 212 215 229 236 235 234 237 237 237 237 238 237 237 234 236 235 233 231 230
223 170 193 175 194 97 242 268 270 185 250 253 265 256 249 254 254 259 251 250 263 263 246 237 229 224 223 216 215 216 221 225 226 224 232 237 237 239 239 239 239 239 237 237 233 235 236 234 229
137 84 132 145 187 236 239 179 267 239 248 249 230 238 243 250 257 259 275 274 273 272 255 238 225 221 223 223 221 217 220 224 225 223 223 228 230 235 240 240 238 237 237 237 235 238 239 237 234
174 141 193 214 215 236 152 176 243 242 244 251 267 251 243 245 274 288 276 285 283 278 270 244 228 221 222 220 220 219 223 226 225 226 224 228 223 225 236 237 232 234 237 237 235 236 236 236 233
197 201 191 197 204 234 158 222 237 234 245 250 241 258 265 258 249 257 261 268 284 285 299 263 235 232 229 225 224 226 226 227 229 229 227 225 229 233 238 233 235 235 233 236 235 234 235 232 235
195 207 202 97 100 82 210 279 292 251 268 299 262 248 254 207 192 189 57 291 2 13 2 337 299 252 241 235 234 232 231 231 232 233 233 232 232 234 238 237 235 237 237 232 231 229 230 228 231
181 157 179 208 194 227 240 264 233 281 244 344 127 170 201 99 114 22 22 2 353 356 360 6 357 318 286 263 249 243 239 237 237 238 237 234 234 232 233 234 234 236 238 235 229 230 231 226 231
174 203 197 173 173 189 195 247 205 232 215 161 147 135 37 41 17 8 357 354 356 351 342 335 346 348 337 320 287 270 255 247 242 239 240 239 238 234 235 234 235 234 234 232 228 228 230 228 233
197 209 199 204 221 214 132 254 224 212 139 143 131 94 21 37 27 22 18 10 2 354 346 342 334 334 340 335 324 308 284 263 253 247 244 240 238 236 235 233 233 235 235 232 228 226 228 228 232